Location: Columbia
(38.9520°N, 92.3340°W)
Time: 10:19:34
(UTC-06:00)

Cosmos 1633 - Visible Passes

Search period start: 22 February 2018 00:00
Search period end: 04 March 2018 00:00
Orbit: 468 x 487 km, 82.5° (Epoch: 22 February)

Date Brightness Start Highest point End Pass type
(mag) Time Alt. Az. Time Alt. Az. Time Alt. Az.
22 Feb 4.1 05:41:03 10° N 05:44:30 39° E 05:47:56 10° SSE visible
22 Feb 4.6 19:23:16 10° SW 19:26:26 30° WNW 19:29:37 10° NNW visible
23 Feb 5.2 05:14:40 10° NNE 05:17:37 23° ENE 05:20:34 10° SE visible
23 Feb 3.3 18:56:06 10° SSW 18:59:35 55° W 19:03:06 10° N visible
24 Feb 5.9 04:48:46 10° NE 04:50:41 14° ENE 04:52:36 10° ESE visible
24 Feb 2.4 18:29:14 10° S 18:32:47 77° E 18:36:22 10° N visible
25 Feb 2.6 05:55:23 10° NNW 05:58:58 57° W 06:02:33 10° S visible
25 Feb 6.2 19:40:44 10° WNW 19:41:10 10° WNW 19:41:37 10° WNW visible
26 Feb 2.7 05:28:32 10° N 05:32:11 76° E 05:35:50 10° S visible
26 Feb 5.7 19:11:44 10° WSW 19:14:12 17° WNW 19:16:40 10° NNW visible
27 Feb 3.9 05:01:53 10° N 05:05:21 40° E 05:08:49 10° SSE visible
27 Feb 4.8 18:44:07 10° SW 18:47:16 30° WNW 18:50:28 10° NNW visible
28 Feb 5.0 04:35:29 10° NNE 04:38:28 23° ENE 04:41:27 10° SE visible
28 Feb 4.0 06:10:41 10° NW 06:13:12 18° W 06:15:44 10° SW visible
01 Mar 5.8 04:09:33 10° NE 04:11:32 14° ENE 04:13:30 10° ESE visible
01 Mar 3.3 05:43:16 10° NNW 05:46:31 31° W 05:49:46 10° SSW visible
02 Mar 2.5 05:16:12 10° NNW 05:19:47 56° W 05:23:23 10° S visible
02 Mar 6.4 19:01:35 10° WNW 19:01:59 10° WNW 19:02:22 10° WNW visible
03 Mar 2.6 04:49:20 10° N 04:53:01 77° E 04:56:40 10° S visible
03 Mar 5.7 18:32:32 10° WSW 18:34:59 17° WNW 18:37:27 10° NNW visible
